Location: �perlecques
(50.8057°N, 2.1521°E)
Time: 07:05:06
(UTC+00:00)

STARLINK-1211 - Pass Details

Date: 09 April 2020
Orbit: 549 x 550 km, 53.0° (Epoch: 25 May)

Event Time Altitude Azimuth Distance (km) Brightness Sun altitude
Rises 20:01:12 0° 289° (WNW) 2,719 9.0 -13.0°
Reaches altitude 10° 20:03:40 10° 278° (W) 1,822 7.4 -13.3°
Maximum altitude 20:07:10 27° 220° (SW) 1,074 5.2 -13.8°
Enters shadow 20:09:53 14° 168° (SSE) 1,567 5.5 -14.2°
